Flag for U.S.A. Weather past 2 weeks in Flagstaff, Arizona, U.S.A.

Now
55 °F

Sunny.


Feels Like: 51 °F
Forecast: 44 / 65 °F
Wind: 14 mph from Southwest

Location: Flagstaff Pulliam Airport

Current Time: Apr 1, 2015 at 9:46:00 AM

Latest Report: Apr 1, 2015 at 8:57 AM


Visibility: 10 mi

Pressure: 29.84 "Hg

Humidity: 42%

Dew point: 32 °F

Location of FlagstaffLocation

Historic Weather in Flagstaff — Graph

°F

Flagstaff temperature yesterday

Maximum temperature yesterday: 68 °F (at 1:57 PM)
Minimum temperature yesterday: 34 °F (at 5:57 AM)
Average temperature yesterday: 53 °F

Past Weeks' High & Low Weather Summary

 TemperatureHumidityPressure
High71 °F (Mar 27, 1:57 PM)97% (Mar 19, 7:57 PM)30.28 "Hg (Mar 19, 7:57 PM)
Low25 °F (Mar 20, 5:57 AM)8% (Mar 27, 2:57 PM)29.79 "Hg (Apr 1, 3:57 AM)
Average48 °F40%30.05 "Hg
* Reported Mar 17 8:57 AM — Apr 1 8:57 AM, Flagstaff, Weather by CustomWeather, © 2015

Note: Actual official high and low records may vary slightly from our data, if they occured in-between our weather recording intervals... More about our weather records

Advertising

Flagstaff weather history for previous 24 hours

 ConditionsComfort  
Time TempWeatherWind HumidityBarometerVisibility
8:57 AM
Wed, Apr 1
55 °FSunny.14 mph42%29.84 "Hg10 mi
7:57 AM50 °FSunny.10 mph50%29.85 "Hg10 mi
6:57 AM45 °FSunny.5 mph58%29.85 "Hg10 mi
5:57 AM47 °FClear.8 mph54%29.82 "Hg10 mi
4:57 AM45 °FClear.6 mph60%29.81 "Hg10 mi
3:57 AM49 °FClear.9 mph50%29.79 "Hg10 mi
2:57 AM50 °FClear.12 mph46%29.80 "Hg10 mi
1:57 AM50 °FClear.10 mph44%29.81 "Hg10 mi
12:57 AM51 °FClear.12 mph39%29.81 "Hg10 mi
11:57 PM
Tue, Mar 31
46 °FClear.3 mph46%29.85 "Hg10 mi
10:57 PM51 °FClear.7 mph36%29.84 "Hg10 mi
9:57 PM52 °FClear.7 mph34%29.85 "Hg10 mi
8:57 PM54 °FClear.6 mph31%29.85 "Hg10 mi
7:57 PM56 °FClear.9 mph29%29.86 "Hg10 mi
6:57 PM58 °FClear.9 mph28%29.90 "Hg10 mi
5:57 PM61 °FPassing clouds.14 mph26%29.92 "Hg10 mi
4:57 PM65 °FScattered clouds.15 mph22%29.90 "Hg10 mi
3:57 PM64 °FPartly sunny.18 mph23%29.89 "Hg10 mi
2:57 PM65 °FScattered clouds.15 mph21%29.91 "Hg10 mi
1:57 PM68 °FPassing clouds.24 mph19%29.93 "Hg10 mi
12:57 PM66 °FSunny.15 mph19%29.99 "Hg10 mi
11:57 AM65 °FSunny.15 mph20%30.01 "Hg10 mi
10:57 AM64 °FSunny.22 mph21%30.03 "Hg10 mi
9:57 AM63 °FSunny.13 mph22%30.02 "Hg10 mi
Weather by CustomWeather, © 2015

See weather overviewHow to use our weather pages